This is the latest recevied weather packets stored in our database for station/object W1ERB-13. If no packets are shown the sender has not sent any weather packets the latest 10 day(s).
| Time | Temp. | Humidity | Pressure | Rain* | Wind** | Luminosity | Snow |
|---|---|---|---|---|---|---|---|
| 1777851018 | 11.67° C | 35% | 1009.4 hPa | 0 mm | - | 12 W/m² | - |
| 1777850715 | 12.22° C | 36% | 1009.2 hPa | 0 mm | - | 14 W/m² | - |
| 1777850412 | 12.22° C | 36% | 1009.3 hPa | 0 mm | - | 16 W/m² | - |
| 1777850109 | 12.22° C | 34% | 1009.1 hPa | 0 mm | - | 20 W/m² | - |
| 1777849801 | 12.78° C | 34% | 1009 hPa | 0 mm | - | 22 W/m² | - |
| 1777849497 | 12.78° C | 33% | 1009.1 hPa | 0 mm | - | 24 W/m² | - |
| 1777849195 | 12.78° C | 33% | 1009.3 hPa | 0 mm | - | 28 W/m² | - |
| 1777848891 | 12.78° C | 33% | 1009.2 hPa | 0 mm | - | 29 W/m² | - |
| 1777848587 | 12.78° C | 33% | 1009.2 hPa | 0 mm | - | 30 W/m² | - |
| 1777848284 | 12.78° C | 33% | 1009.1 hPa | 0 mm | - | 31 W/m² | - |
| 1777847982 | 12.78° C | 33% | 1009 hPa | 0 mm | - | 32 W/m² | - |
| 1777847680 | 12.78° C | 34% | 1009 hPa | 0 mm | - | 33 W/m² | - |
| 1777847375 | 12.78° C | 35% | 1009 hPa | 0 mm | - | 35 W/m² | - |
| 1777847074 | 12.78° C | 35% | 1009.1 hPa | 0 mm | - | 35 W/m² | - |
| 1777846771 | 12.78° C | 33% | 1009.2 hPa | 0 mm | - | 37 W/m² | - |
| 1777846469 | 12.22° C | 33% | 1008.9 hPa | 0 mm | - | 38 W/m² | - |
| 1777846166 | 12.78° C | 34% | 1009 hPa | 0 mm | - | 39 W/m² | - |
| 1777845862 | 12.22° C | 33% | 1008.9 hPa | 0 mm | - | 39 W/m² | - |
| 1777845560 | 12.22° C | 34% | 1009 hPa | 0 mm | - | 42 W/m² | - |
| 1777845256 | 12.78° C | 34% | 1009.1 hPa | 0 mm | - | 42 W/m² | - |
| 1777844954 | 12.78° C | 34% | 1009 hPa | 0 mm | - | 67 W/m² | - |
| 1777844651 | 12.78° C | 34% | 1009.1 hPa | 0 mm | - | 48 W/m² | - |
| 1777844349 | 12.22° C | 34% | 1009.2 hPa | 0 mm | - | 48 W/m² | - |
| 1777844046 | 12.22° C | 34% | 1009.1 hPa | 0 mm | - | 51 W/m² | - |
| 1777843743 | 12.22° C | 34% | 1008.9 hPa | 0 mm | - | 61 W/m² | - |
* Rain latest hour (hover to see other rain measurements)
** Current wind speed in m/s (hover to see current wind gust speed)